Weather History for KIFP - December, 2013

Change the Weather History Date:

Sunday, December 8, 2013

  Actual Average Record
Temperature  
Mean Temperature 44 °F -  
Max Temperature 48 °F 63 °F 71 °F (1989)
Min Temperature 39 °F 46 °F 33 °F (2011)
Degree Days  
Heating Degree Days 22    
Moisture  
Dew Point 10 °F    
Average Humidity 26    
Maximum Humidity 45    
Minimum Humidity 17    
Precipitation  
Precipitation 0.00 in - - ()
Sea Level Pressure  
Sea Level Pressure 30.15 in    
Wind  
Wind Speed 14 mph (NNE)    
Max Wind Speed 24 mph    
Max Gust Speed 30 mph    
Visibility 10 miles    
Events      
Averages and records for this station are not official NWS values.
T = Trace of Precipitation, MM = Missing Value Source: NWS Daily Summary

Daily Weather History Graph

Daily Weather History Graph

Search for Another Location

Airport or City:

Trip Planner

Search our weather history database for the weather conditions in past years. The results will help you decide how hot, cold, wet, or windy it might be!

Date:

Astronomy

Dec. 08, 2013 Rise Set
Actual Time 7:34 AM MST 5:26 PM MST
Civil Twilight 7:06 AM MST 5:54 PM MST
Nautical Twilight 6:34 AM MST 6:25 PM MST
Astronomical Twilight 6:03 AM MST 6:56 PM MST
Moon 12:07 PM MST (12/8) No Moon Set
Length of Visible Light 10h 47m
Length of Day
9h 51m
Waxing Crescent, 40% of the Moon is Illuminated
Dec 8
Waxing Crescent
Dec 9
First Quarter
Dec 17
Full
Dec 25
Last Quarter
Jan 1
New

Hourly Weather History & Observations

Time (MST) Temp. Windchill Dew Point Humidity Pressure Visibility Wind Dir Wind Speed Gust Speed Precip Events Conditions
12:15 AM 41.0 °F 35.2 °F 19.4 °F 42% 30.00 in 10.0 mi East 9.2 mph - N/A   Clear
12:35 AM 41.0 °F 33.9 °F 19.4 °F 42% 30.01 in 10.0 mi East 12.7 mph - N/A   Clear
12:55 AM 41.0 °F 35.2 °F 19.4 °F 42% 30.01 in 10.0 mi East 9.2 mph - N/A   Clear
1:15 AM 41.0 °F 39.0 °F 19.4 °F 42% 30.02 in 10.0 mi NE 3.5 mph - N/A   Clear
1:35 AM 41.0 °F 39.0 °F 19.4 °F 42% 30.03 in 10.0 mi ENE 3.5 mph - N/A   Clear
1:55 AM 41.0 °F 39.0 °F 19.4 °F 42% 30.04 in 10.0 mi NE 3.5 mph - N/A   Clear
2:15 AM 41.0 °F 36.4 °F 21.2 °F 45% 30.04 in 10.0 mi NNE 6.9 mph - N/A   Clear
2:35 AM 44.6 °F 37.2 °F 19.4 °F 37% 30.04 in 10.0 mi North 17.3 mph 23.0 mph N/A   Clear
2:55 AM 44.6 °F 37.2 °F 17.6 °F 34% 30.05 in 10.0 mi NNE 17.3 mph 20.7 mph N/A   Clear
3:15 AM 44.6 °F 38.4 °F 15.8 °F 31% 30.06 in 10.0 mi NNE 12.7 mph - N/A   Clear
3:35 AM 44.6 °F 36.4 °F 14.0 °F 29% 30.07 in 10.0 mi NNE 20.7 mph 26.5 mph N/A   Clear
3:55 AM 44.6 °F 38.8 °F 14.0 °F 29% 30.08 in 10.0 mi North 11.5 mph - N/A   Clear
4:15 AM 42.8 °F 35.4 °F 14.0 °F 31% 30.09 in 10.0 mi North 15.0 mph - N/A   Clear
4:35 AM 42.8 °F 35.8 °F 12.2 °F 29% 30.10 in 10.0 mi North 13.8 mph - N/A   Clear
4:55 AM 42.8 °F 35.1 °F 6.8 °F 23% 30.10 in 10.0 mi North 16.1 mph - N/A   Clear
5:15 AM 42.8 °F 34.8 °F 6.8 °F 23% 30.10 in 10.0 mi North 17.3 mph - N/A   Clear
5:35 AM 42.8 °F 35.1 °F 6.8 °F 23% 30.11 in 10.0 mi NNE 16.1 mph - N/A   Clear
5:55 AM 42.8 °F 35.4 °F 6.8 °F 23% 30.11 in 10.0 mi NNE 15.0 mph - N/A   Clear
6:15 AM 41.0 °F 33.1 °F 6.8 °F 24% 30.12 in 10.0 mi NNE 15.0 mph - N/A   Clear
6:35 AM 41.0 °F 34.3 °F 6.8 °F 24% 30.13 in 10.0 mi NNE 11.5 mph - N/A   Clear
6:55 AM 41.0 °F 33.9 °F 6.8 °F 24% 30.13 in 10.0 mi NNE 12.7 mph - N/A   Clear
7:15 AM 41.0 °F 32.8 °F 6.8 °F 24% 30.14 in 10.0 mi NNE 16.1 mph - N/A   Clear
7:35 AM 41.0 °F 33.5 °F 8.6 °F 26% 30.15 in 10.0 mi NNE 13.8 mph - N/A   Clear
7:55 AM 41.0 °F 32.2 °F 10.4 °F 29% 30.16 in 10.0 mi NNE 18.4 mph - N/A   Clear
8:15 AM 41.0 °F 33.1 °F 14.0 °F 33% 30.18 in 10.0 mi NNE 15.0 mph 20.7 mph N/A   Clear
8:35 AM 41.0 °F 33.1 °F 14.0 °F 33% 30.19 in 10.0 mi NNE 15.0 mph - N/A   Clear
8:55 AM 41.0 °F 33.5 °F 14.0 °F 33% 30.19 in 10.0 mi NNE 13.8 mph - N/A   Clear
9:15 AM 41.0 °F 32.2 °F 12.2 °F 31% 30.19 in 10.0 mi NNE 18.4 mph 23.0 mph N/A   Clear
9:35 AM 42.8 °F 35.1 °F 12.2 °F 29% 30.20 in 10.0 mi North 16.1 mph 21.9 mph N/A   Clear
9:55 AM 44.6 °F 36.9 °F 10.4 °F 25% 30.21 in 10.0 mi North 18.4 mph - N/A   Clear
10:15 AM 44.6 °F 37.2 °F 12.2 °F 27% 30.22 in 10.0 mi North 17.3 mph 23.0 mph N/A   Clear
10:35 AM 44.6 °F 36.6 °F 12.2 °F 27% 30.22 in 10.0 mi North 19.6 mph 26.5 mph N/A   Clear
10:55 AM 46.4 °F 39.2 °F 10.4 °F 23% 30.22 in 10.0 mi North 18.4 mph 27.6 mph N/A   Clear
11:15 AM 46.4 °F 39.0 °F 10.4 °F 23% 30.22 in 10.0 mi North 19.6 mph 23.0 mph N/A   Clear
11:35 AM 46.4 °F 38.1 °F 8.6 °F 22% 30.21 in 10.0 mi North 24.2 mph 28.8 mph N/A   Clear
11:55 AM 46.4 °F 38.1 °F 6.8 °F 20% 30.20 in 10.0 mi North 24.2 mph 29.9 mph N/A   Clear
12:15 PM 46.4 °F 38.5 °F 6.8 °F 20% 30.19 in 10.0 mi North 21.9 mph 25.3 mph N/A   Clear
12:35 PM 46.4 °F 39.2 °F 6.8 °F 20% 30.18 in 10.0 mi North 18.4 mph 28.8 mph N/A   Clear
12:55 PM 46.4 °F 38.5 °F 6.8 °F 20% 30.17 in 10.0 mi North 21.9 mph 27.6 mph N/A   Clear
1:15 PM 46.4 °F 38.3 °F 6.8 °F 20% 30.16 in 10.0 mi North 23.0 mph - N/A   Clear
1:35 PM 46.4 °F 38.7 °F 5.0 °F 18% 30.15 in 10.0 mi North 20.7 mph - N/A   Clear
1:55 PM 46.4 °F 38.7 °F 5.0 °F 18% 30.14 in 10.0 mi North 20.7 mph 25.3 mph N/A   Clear
2:15 PM 46.4 °F 39.5 °F 3.2 °F 17% 30.14 in 10.0 mi North 17.3 mph 23.0 mph N/A   Clear
2:35 PM 46.4 °F 39.8 °F 6.8 °F 20% 30.14 in 10.0 mi North 16.1 mph 24.2 mph N/A   Clear
2:55 PM 48.2 °F - 6.8 °F 19% 30.14 in 10.0 mi North 17.3 mph 21.9 mph N/A   Clear
3:15 PM 46.4 °F 38.5 °F 6.8 °F 20% 30.14 in 10.0 mi North 21.9 mph - N/A   Clear
3:35 PM 46.4 °F 39.5 °F 6.8 °F 20% 30.14 in 10.0 mi North 17.3 mph - N/A   Clear
3:55 PM 48.2 °F - 8.6 °F 20% 30.14 in 10.0 mi North 19.6 mph 23.0 mph N/A   Clear
4:15 PM 48.2 °F - 6.8 °F 19% 30.15 in 10.0 mi North 15.0 mph - N/A   Clear
4:35 PM 48.2 °F - 8.6 °F 20% 30.15 in 10.0 mi North 19.6 mph - N/A   Clear
4:55 PM 46.4 °F 39.8 °F 8.6 °F 22% 30.15 in 10.0 mi North 16.1 mph 19.6 mph N/A   Clear
5:15 PM 46.4 °F 40.4 °F 6.8 °F 20% 30.16 in 10.0 mi North 13.8 mph 20.7 mph N/A   Clear
5:35 PM 46.4 °F 39.5 °F 6.8 °F 20% 30.16 in 10.0 mi North 17.3 mph - N/A   Clear
5:55 PM 44.6 °F 38.1 °F 5.0 °F 20% 30.16 in 10.0 mi North 13.8 mph - N/A   Clear
6:15 PM 44.6 °F 38.4 °F 5.0 °F 20% 30.16 in 10.0 mi NNE 12.7 mph - N/A   Clear
6:35 PM 44.6 °F 40.2 °F 5.0 °F 20% 30.17 in 10.0 mi NE 8.1 mph - N/A   Clear
6:55 PM 42.8 °F 37.5 °F 5.0 °F 21% 30.18 in 10.0 mi NNE 9.2 mph - N/A   Clear
7:15 PM 42.8 °F 36.6 °F 5.0 °F 21% 30.18 in 10.0 mi NNE 11.5 mph - N/A   Clear
7:35 PM 42.8 °F 36.6 °F 5.0 °F 21% 30.18 in 10.0 mi NNE 11.5 mph - N/A   Clear
7:55 PM 42.8 °F 37.0 °F 5.0 °F 21% 30.19 in 10.0 mi North 10.4 mph - N/A   Clear
8:15 PM 41.0 °F 35.8 °F 5.0 °F 23% 30.19 in 10.0 mi North 8.1 mph - N/A   Clear
8:35 PM 41.0 °F 34.7 °F 6.8 °F 24% 30.20 in 10.0 mi North 10.4 mph - N/A   Clear
8:55 PM 41.0 °F 33.9 °F 6.8 °F 24% 30.20 in 10.0 mi NNE 12.7 mph - N/A   Clear
9:15 PM 41.0 °F 34.3 °F 8.6 °F 26% 30.21 in 10.0 mi NNE 11.5 mph - N/A   Clear
9:35 PM 41.0 °F 33.1 °F 10.4 °F 29% 30.21 in 10.0 mi NNE 15.0 mph 19.6 mph N/A   Clear
9:55 PM 41.0 °F 32.8 °F 10.4 °F 29% 30.21 in 10.0 mi NNE 16.1 mph - N/A   Clear
10:15 PM 41.0 °F 33.5 °F 10.4 °F 29% 30.22 in 10.0 mi NE 13.8 mph - N/A   Clear
10:35 PM 39.2 °F 31.6 °F 10.4 °F 31% 30.24 in 10.0 mi NE 12.7 mph - N/A   Clear
10:55 PM 39.2 °F 32.0 °F 10.4 °F 31% 30.24 in 10.0 mi NNE 11.5 mph - N/A   Clear
11:15 PM 39.2 °F 30.2 °F 10.4 °F 31% 30.24 in 10.0 mi NNE 17.3 mph 20.7 mph N/A   Clear
11:35 PM 39.2 °F 31.2 °F 10.4 °F 31% 30.25 in 10.0 mi NNE 13.8 mph - N/A   Clear
11:55 PM 39.2 °F 32.5 °F 12.2 °F 33% 30.25 in 10.0 mi NE 10.4 mph - N/A   Clear